When you browse on this site, cookies collect data to enhance your experience and personalize the content and advertising you see.
Visit our Privacy Policy to learn more. By continuing to use the site, you agree to this use of cookies and data.
  • In Germany
  • List of Countries
  • For 7 days
  • Water Temperature
  • Satellite Maps
  • Weather Map
  • Weather Widgets
  • user-avatar
    Login

    Hourly Weather Sidi Bu-l-Abbas

    Today, 26 March, Tuesday

    Time Temperature Precipitation Wind Pressure Humidity
    00:00 +14°C° 0.1 mm 1 mps 718 mmHg 75%
    01:00 +14°C° 0 mm 1 mps 718 mmHg 72%
    02:00 +14°C° 0 mm 1 mps 718 mmHg 70%
    03:00 +14°C° 0 mm 1 mps 717 mmHg 67%
    04:00 +14°C° 0 mm 1 mps 717 mmHg 65%
    05:00 +14°C° 0 mm 2 mps 717 mmHg 63%
    06:00 +15°C° 0 mm 2 mps 717 mmHg 61%
    07:00 +16°C° 0 mm 2 mps 717 mmHg 56%
    08:00 +18°C° 0 mm 3 mps 718 mmHg 52%
    09:00 +19°C° 0 mm 3 mps 718 mmHg 47%
    10:00 +21°C° 0 mm 3 mps 718 mmHg 41%
    11:00 +24°C° 0 mm 3 mps 718 mmHg 35%
    12:00 +26°C° 0 mm 3 mps 718 mmHg 28%
    13:00 +26°C° 0 mm 5 mps 718 mmHg 31%
    14:00 +26°C° 0 mm 7 mps 717 mmHg 34%
    15:00 +26°C° 0 mm 8 mps 717 mmHg 36%
    16:00 +22°C° 0.2 mm 8 mps 716 mmHg 46%
    17:00 +18°C° 0.2 mm 8 mps 716 mmHg 57%
    18:00 +16°C° 0.2 mm 8 mps 716 mmHg 67%
    19:00 +14°C° 0.4 mm 7 mps 717 mmHg 69%
    20:00 +13°C° 0.4 mm 6 mps 717 mmHg 72%
    21:00 +12°C° 0.4 mm 5 mps 718 mmHg 74%
    22:00 +12°C° 1.1 mm 5 mps 718 mmHg 72%
    23:00 +11°C° 1.1 mm 4 mps 718 mmHg 70%

    Tomorrow, 27 March, Wednesday

    Time Temperature Precipitation Wind Pressure Humidity
    00:00 +10°C° 1.1 mm 3 mps 718 mmHg 68%
    01:00 +10°C° 0.3 mm 3 mps 718 mmHg 70%
    02:00 +10°C° 0.3 mm 3 mps 718 mmHg 72%
    03:00 +9°C° 0.3 mm 3 mps 718 mmHg 74%
    04:00 +9°C° 0.1 mm 3 mps 718 mmHg 75%
    05:00 +9°C° 0.1 mm 3 mps 719 mmHg 77%
    06:00 +9°C° 0.1 mm 3 mps 719 mmHg 78%
    07:00 +8°C° 0.2 mm 4 mps 719 mmHg 75%
    08:00 +9°C° 0.2 mm 5 mps 720 mmHg 73%
    09:00 +9°C° 0.2 mm 5 mps 720 mmHg 70%
    10:00 +10°C° 0 mm 5 mps 720 mmHg 68%
    11:00 +10°C° 0 mm 5 mps 721 mmHg 65%
    12:00 +12°C° 0 mm 5 mps 721 mmHg 62%
    13:00 +12°C° 0 mm 5 mps 721 mmHg 59%
    14:00 +13°C° 0 mm 5 mps 721 mmHg 55%
    15:00 +13°C° 0 mm 5 mps 721 mmHg 51%
    16:00 +13°C° 0 mm 5 mps 721 mmHg 54%
    17:00 +12°C° 0 mm 5 mps 722 mmHg 57%
    18:00 +12°C° 0 mm 4 mps 722 mmHg 60%
    19:00 +11°C° 0 mm 4 mps 722 mmHg 63%
    20:00 +11°C° 0 mm 4 mps 723 mmHg 66%
    21:00 +10°C° 0 mm 3 mps 723 mmHg 70%
    22:00 +9°C° 0 mm 3 mps 723 mmHg 74%
    23:00 +8°C° 0 mm 2 mps 723 mmHg 79%

    Day after tomorrow, 28 March, Thursday

    Time Temperature Precipitation Wind Pressure Humidity
    00:00 +7°C° 0 mm 2 mps 723 mmHg 83%
    01:00 +8°C° 0 mm 1 mps 723 mmHg 86%
    02:00 +7°C° 0 mm 1 mps 723 mmHg 88%
    03:00 +6°C° 0 mm 0 mps 723 mmHg 91%
    04:00 +6°C° 0 mm 0 mps 723 mmHg 91%
    05:00 +5°C° 0 mm 0 mps 723 mmHg 92%
    06:00 +5°C° 0 mm 0 mps 723 mmHg 92%
    07:00 +8°C° 0 mm 1 mps 723 mmHg 83%
    08:00 +9°C° 0 mm 2 mps 724 mmHg 74%
    09:00 +11°C° 0 mm 3 mps 725 mmHg 65%
    10:00 +13°C° 0 mm 3 mps 725 mmHg 60%
    11:00 +14°C° 0 mm 4 mps 725 mmHg 55%
    12:00 +15°C° 0 mm 4 mps 725 mmHg 51%
    13:00 +15°C° 0 mm 4 mps 724 mmHg 52%
    14:00 +15°C° 0 mm 4 mps 724 mmHg 53%
    15:00 +15°C° 0 mm 4 mps 724 mmHg 54%
    16:00 +14°C° 0 mm 4 mps 724 mmHg 59%
    17:00 +14°C° 0 mm 4 mps 724 mmHg 63%
    18:00 +13°C° 0 mm 4 mps 723 mmHg 67%
    19:00 +13°C° 0.2 mm 3 mps 724 mmHg 73%
    20:00 +13°C° 0.2 mm 2 mps 724 mmHg 79%
    21:00 +12°C° 0.2 mm 2 mps 725 mmHg 85%
    22:00 +12°C° 0 mm 1 mps 725 mmHg 86%
    23:00 +12°C° 0 mm 1 mps 725 mmHg 87%

    29 March, Friday

    Time Temperature Precipitation Wind Pressure Humidity
    00:00 +11°C° 0 mm 0 mps 724 mmHg 88%
    01:00 +10°C° 0 mm 0 mps 724 mmHg 90%
    02:00 +9°C° 0 mm 0 mps 724 mmHg 91%
    03:00 +9°C° 0 mm 0 mps 723 mmHg 93%
    04:00 +9°C° 0 mm 1 mps 723 mmHg 93%
    05:00 +9°C° 0 mm 1 mps 723 mmHg 93%
    06:00 +9°C° 0 mm 1 mps 723 mmHg 93%
    07:00 +11°C° 0 mm 1 mps 724 mmHg 84%
    08:00 +13°C° 0 mm 2 mps 724 mmHg 76%
    09:00 +15°C° 0 mm 2 mps 725 mmHg 67%
    10:00 +16°C° 0 mm 2 mps 724 mmHg 61%
    11:00 +18°C° 0 mm 2 mps 724 mmHg 56%
    12:00 +19°C° 0 mm 2 mps 724 mmHg 50%
    13:00 +20°C° 0.1 mm 3 mps 724 mmHg 50%
    14:00 +20°C° 0.1 mm 4 mps 723 mmHg 50%
    15:00 +20°C° 0.1 mm 5 mps 723 mmHg 49%
    16:00 +19°C° 0 mm 5 mps 722 mmHg 54%
    17:00 +17°C° 0 mm 5 mps 722 mmHg 59%
    18:00 +16°C° 0 mm 5 mps 722 mmHg 63%
    19:00 +14°C° 0 mm 4 mps 722 mmHg 69%
    20:00 +13°C° 0 mm 3 mps 723 mmHg 74%
    21:00 +13°C° 0 mm 2 mps 723 mmHg 79%
    22:00 +14°C° 0.1 mm 2 mps 723 mmHg 77%
    23:00 +14°C° 0.1 mm 1 mps 723 mmHg 75%

    30 March, Saturday

    Time Temperature Precipitation Wind Pressure Humidity
    00:00 +15°C° 0.1 mm 1 mps 723 mmHg 74%
    01:00 +14°C° 0.8 mm 1 mps 722 mmHg 76%
    02:00 +14°C° 0.8 mm 1 mps 722 mmHg 78%
    03:00 +14°C° 0.8 mm 1 mps 722 mmHg 80%
    04:00 +14°C° 0.6 mm 1 mps 722 mmHg 79%
    05:00 +14°C° 0.6 mm 2 mps 722 mmHg 77%
    06:00 +13°C° 0.6 mm 3 mps 722 mmHg 76%
    07:00 +16°C° 0 mm 3 mps 722 mmHg 66%
    08:00 +17°C° 0 mm 4 mps 723 mmHg 57%
    09:00 +19°C° 0 mm 5 mps 723 mmHg 47%
    10:00 +20°C° 0 mm 5 mps 723 mmHg 43%
    11:00 +21°C° 0 mm 5 mps 722 mmHg 39%
    12:00 +22°C° 0 mm 5 mps 722 mmHg 35%
    13:00 +23°C° 0 mm 5 mps 721 mmHg 32%
    14:00 +25°C° 0 mm 5 mps 721 mmHg 30%
    15:00 +26°C° 0 mm 6 mps 720 mmHg 28%
    16:00 +24°C° 0 mm 6 mps 720 mmHg 32%
    17:00 +22°C° 0 mm 6 mps 720 mmHg 36%
    18:00 +21°C° 0 mm 6 mps 719 mmHg 39%
    19:00 +20°C° 0.2 mm 5 mps 720 mmHg 48%
    20:00 +18°C° 0.2 mm 4 mps 720 mmHg 57%
    21:00 +17°C° 0.2 mm 4 mps 720 mmHg 65%
    22:00 +15°C° 0.2 mm 4 mps 719 mmHg 64%
    23:00 +15°C° 0.2 mm 4 mps 719 mmHg 63%

    31 March, Sunday

    Time Temperature Precipitation Wind Pressure Humidity
    00:00 +15°C° 0.2 mm 4 mps 718 mmHg 62%
    01:00 +14°C° 0 mm 4 mps 718 mmHg 63%
    02:00 +14°C° 0 mm 4 mps 717 mmHg 63%
    03:00 +13°C° 0 mm 4 mps 717 mmHg 64%
    04:00 +13°C° 0.1 mm 3 mps 716 mmHg 65%
    05:00 +13°C° 0.1 mm 3 mps 716 mmHg 65%
    06:00 +13°C° 0.1 mm 3 mps 716 mmHg 66%
    07:00 +16°C° 0.1 mm 3 mps 716 mmHg 59%
    08:00 +18°C° 0.1 mm 4 mps 716 mmHg 52%
    09:00 +19°C° 0.1 mm 4 mps 717 mmHg 45%
    10:00 +21°C° 0 mm 4 mps 717 mmHg 42%
    11:00 +22°C° 0 mm 4 mps 716 mmHg 40%
    12:00 +23°C° 0 mm 4 mps 716 mmHg 37%
    13:00 +22°C° 0 mm 5 mps 716 mmHg 39%
    14:00 +22°C° 0 mm 6 mps 716 mmHg 42%
    15:00 +22°C° 0 mm 7 mps 716 mmHg 44%
    16:00 +20°C° 0.3 mm 6 mps 716 mmHg 52%
    17:00 +17°C° 0.3 mm 6 mps 716 mmHg 60%
    18:00 +16°C° 0.3 mm 5 mps 716 mmHg 68%
    19:00 +15°C° 0 mm 4 mps 717 mmHg 74%
    20:00 +13°C° 0 mm 4 mps 718 mmHg 80%
    21:00 +12°C° 0 mm 3 mps 718 mmHg 87%
    22:00 +12°C° 0 mm 3 mps 718 mmHg 89%
    23:00 +13°C° 0 mm 2 mps 718 mmHg 91%
    Show more